Regional Weather Roundup
Issued by NWS

Home | Current Version | Previous Version | Graphics & Text | Print | Product List | Glossary Off
Versions: 1 2 3 4 5 6 7 8 9 10 11 12 13 14 15 16 17 18 19 20 21 22 23 24 25 26 27 28 29 30 31 32 33 34 35 36 37 38 39 40 41 42 43 44 45 46 47 48 49 50

000
ASUS43 KDMX 012107
RWRIA

WEATHER ROUNDUP FOR IOWA
NATIONAL WEATHER SERVICE DES MOINES IA
400 PM CDT WED APR 01 2015

NOTE: "FAIR" INDICATES FEW OR NO CLOUDS BELOW 12,000 FEET WITH NO
SIGNIFICANT WEATHER AND/OR OBSTRUCTIONS TO VISIBILITY.

* - THESE STATIONS ARE NOT NWS STATIONS...THUS NOT UNDER NWS
QUALITY CONTROL.  THEY ALSO DO NOT REPORT WEATHER SUCH
AS PRECIPITATION OR FOG.

IAZ001>003-012>014-020>022-031>034-043>046-012200-
   NORTHWEST IOWA

CITY           SKY/WX    TMP DP  RH WIND       PRES   REMARKS
CARROLL *      SUNNY     82  46  28 S30G45    29.61F HX  81
CHEROKEE *     MOSUNNY   82  45  26 SW30G37   29.55F HX  80
DENISON *      SUNNY     82  48  30 S26G39    29.57F HX  81
LE MARS *      SUNNY     84  45  24 S29G38    29.53F HX  82
ORANGE CITY *  SUNNY     84  39  20 S30G39    29.53F HX  81
SHELDON *      SUNNY     82  46  28 SW30G44   29.52F HX  81
SIOUX CITY     MOSUNNY   86  44  23 S26G41    29.54F HX  83
SPENCER        MOSUNNY   83  42  23 S29G43    29.55F HX  81
STORM LAKE *   SUNNY     82  46  28 S35G44    29.57F HX  81
$$

IAZ055>058-069>071-079>083-090>094-012200-
   SOUTHWEST IOWA

CITY           SKY/WX    TMP DP  RH WIND       PRES   REMARKS
ATLANTIC *     SUNNY     82  50  32 S25G36    29.63F HX  81
AUDUBON *      SUNNY     81  45  28 S20G32    29.64F
CLARINDA *     SUNNY     81  52  36 S25G35    29.67F HX  80
COUNCIL BLFS * SUNNY     82  48  30 S23G40    29.61F HX  81
CRESTON *      SUNNY     79  50  36 S29G37    29.68F
HARLAN  *      SUNNY     82  50  32 S29G39    29.63F HX  81
LAMONI         SUNNY     80  47  31 S22G31    29.72F
RED OAK *      SUNNY     82  50  32 S30G39    29.63F HX  81
SHENANDOAH *   SUNNY     84  48  28 S35G43    29.64F HX  82
$$

IAZ047>049-059>061-072>074-084-012200-
   CENTRAL IOWA

CITY           SKY/WX    TMP DP  RH WIND       PRES   REMARKS
AMES           SUNNY     81  37  20 S20G36    29.66F
ANKENY *       SUNNY     81  37  21 S22G33    29.67F
CHARITON *     SUNNY     79  43  27 S28G35    29.72F
DES MOINES     MOSUNNY   82  36  19 S25G36    29.68F HX  80
GRINNELL*      SUNNY     79  34  19 S24G33    29.73F
KNOXVILLE *    SUNNY     79  39  24 S23G31    29.70F
MARSHALLTOWN   SUNNY     80  36  20 S30G38    29.69F
PELLA *        SUNNY     81  43  26 S22G30    29.73F
PERRY *          N/A     82  39  21 S26G36    29.64F HX  80
$$

IAZ004>006-015-016-023>025-035-036-012200-
   NORTH CENTRAL IOWA

CITY           SKY/WX    TMP DP  RH WIND       PRES   REMARKS
ALGONA *       SUNNY     81  39  22 S39G46    29.57F
CLARION *      SUNNY     82  36  18 S33G41    29.62F HX  80
ESTHERVILLE    MOSUNNY   81  42  25 S33G44    29.55F
FORT DODGE *   SUNNY     82  41  23 S24G33    29.63F HX  80
MASON CITY     MOSUNNY   79  35  20 S32G41    29.63F
FOREST CITY *  SUNNY     79  34  19 S25G41    29.60F
IOWA FALLS *     N/A     81  36  19 S31G38    29.67F
$$

IAZ007>011-017>019-026>030-037>042-050>054-066-012200-
   NORTHEAST IOWA

CITY           SKY/WX    TMP DP  RH WIND       PRES   REMARKS
CEDAR RAPIDS   SUNNY     79  33  19 S28G39    29.76F
CHARLES CITY * SUNNY     79  34  19 S29G36    29.66F
CLINTON *      SUNNY     79  36  21 S20G30    29.84F
DECORAH *      SUNNY     77  34  20 S23G36    29.68F
DUBUQUE        SUNNY     78  33  19 S26G36    29.77F
MONTICELLO *   SUNNY     79  34  19 S21G39    29.77F
OELWEIN *      SUNNY     79  34  19 S32G43    29.72F
WATERLOO       SUNNY     79  33  19 S28G39    29.69F
$$

IAZ064-065-067-068-078-012200-
   EAST CENTRAL IOWA

CITY           SKY/WX    TMP DP  RH WIND       PRES   REMARKS
DAVENPORT      SUNNY     80  30  16 S29G36    29.82F
IOWA CITY      SUNNY     79  35  20 S21G30    29.79F
MT. PLEASANT * SUNNY     77  32  19 SE25G31   29.81F
MUSCATINE *    SUNNY     79  32  18 S28       29.80F
QUAD CITIES    SUNNY     79  31  17 S23G31    29.81F
$$

IAZ062-063-075>077-085>089-095>099-012200-
   SOUTHEAST IOWA

CITY           SKY/WX    TMP DP  RH WIND       PRES   REMARKS
BURLINGTON     SUNNY     77  34  21 S23G30    29.83F
FAIRFIELD *    SUNNY     79  32  18 S23G32    29.78F
FORT MADISON * SUNNY     77  37  24 S17G25    29.83F
KEOKUK *       SUNNY     79  34  19 S17G24    29.81F
OSKALOOSA *      N/A     79  34  19 S28       29.76F
CENTERVILLE *  SUNNY     77  43  29 S23       29.77F
OTTUMWA        SUNNY     78  37  22 S22G36    29.76F
WASHINGTON *   SUNNY     79  36  21 S23G31    29.78F
$$

ABBREVIATIONS USED IN REMARKS
   TC - TEMPERATURES IN CELSIUS
  WCI - WIND CHILL INDEX
   HX - HEAT INDEX
  VSB - VISIBILITY
$$




USA.gov is the U.S. government's official web portal to all federal, state and local government web resources and services.